Regional Weather Roundup
Issued by NWS Charleston, WV

Home | Current Version | Previous Version | Graphics & Text | Print | Product List | Glossary On
Versions: 1 2 3 4 5 6 7 8 9 10 11 12 13 14 15 16 17 18 19 20 21 22 23 24 25 26 27 28 29 30 31 32 33 34 35 36 37 38 39 40 41 42 43 44 45 46 47 48 49 50
000
ASUS41 KRLX 251610
RWRRLX
West Virginia Regional Weather Roundup
National Weather Service Charleston WV
1200 PM EDT SAT APR 25 2015

Note: "fair" indicates few or no clouds below 12,000 feet with no
significant weather and/or obstructions to visibility.

WVZ003-251700-
Northern Panhandle of West Virginia

CITY           SKY/WX    TMP DP  RH WIND       PRES   REMARKS
WHEELING       CLOUDY    46  31  55 NE9       29.87F
$$

WVZ009-251700-
Northwest West Virginia

CITY           SKY/WX    TMP DP  RH WIND       PRES   REMARKS
PARKERSBURG    CLOUDY    48  28  46 E13       29.85F
$$

WVZ006-251700-
Western West Virginia

CITY           SKY/WX    TMP DP  RH WIND       PRES   REMARKS
HUNTINGTON     LGT RAIN  48  46  93 E7        29.75F FOG
$$

WVZ015-251700-
West Central West Virginia

CITY           SKY/WX    TMP DP  RH WIND       PRES   REMARKS
CHARLESTON     RAIN      49  43  80 SE9       29.78F
$$

WVZ022-031-251700-
North Central West Virginia

CITY           SKY/WX    TMP DP  RH WIND       PRES   REMARKS
CLARKSBURG     CLOUDY    47  28  47 E5        29.85F
MORGANTOWN     CLOUDY    46  27  47 NE7       29.87F
$$

WVZ025-035-042-045-251700-
Southern West Virginia

CITY           SKY/WX    TMP DP  RH WIND       PRES   REMARKS
BECKLEY        LGT RAIN  43  38  82 SE13G21   29.81F
LOGAN          LGT RAIN  48  46  93 CALM      29.73F
BLUEFIELD      CLOUDY    43  35  73 E10G18    29.82F
LEWISBURG      LGT RAIN  43  38  84 CALM      29.87S
$$

WVZ047-251700-
Northern Mountains of West Virginia

CITY           SKY/WX    TMP DP  RH WIND       PRES   REMARKS
ELKINS         CLOUDY    49  30  48 VRB3      29.83F
$$

WVZ052-251700-
Eastern Panhandle of West Virginia

CITY           SKY/WX    TMP DP  RH WIND       PRES   REMARKS
MARTINSBURG    CLOUDY    47  22  37 CALM      29.92F
PETERSBURG     CLOUDY    45  22  40 CALM      29.92F
$$



USA.gov is the U.S. government's official web portal to all federal, state and local government web resources and services.